STARLINK-5767, 55586

Orbit data source: Space-Track

STARLINK-5767, 55586 is a payload satellite owned by SpaceX/Seattle (US) in LEO that was launched on Sun, 12 Feb 2023 UTC via an FALCON 9 launch vehicle from the Air Force Eastern Test Range (AFETR). Payload-class satellites include a variety of spacecraft equipped with specific instruments for various scientific and technological missions. These include communications satellites like Starlink; space stations such as the ISS; scientific satellites like the Hubble; Earth observation satellites from companies like Planet Labs, Umbra, and HawkEye 360; GPS; miniature CubeSats for education and research; and military/defense satellites.

Loading next visibility...
Identifier
55586, 2023-020T
Orbit
LEO
Country
Flag of USUS
Related business
Manufacturer
SpaceX/Seattle
Mission
Operational spacecraft
Bus & Motor
STARLINK, Unknown motor
Mass
305 kg wet, ~290 kg dry
Launch date (UTC)
2023-02-12 (3 years ago)
Launch vehicle
FALCON 9
Launch site
Air Force Eastern Test Range (AFETR)
Object type
Payload
Rocket body
Debris
Shape & HBR
Unknown shape, 10.1 m
Radar Cross Section
Large (>1 m²)

Expand to show TLE details & history
Last TLE update: 12 hours ago

TLE from 12 hours ago
0 STARLINK-5767
1 55586U 23020T   25340.77405675 -.00000275  00000-0 -53020-5 0  9992
2 55586  43.0023 149.4103 0001375 273.4180  86.6505 15.02530958154947
Epoch: 2025-12-06T18:34Z
TLE epoch observation values (Epoch: 2025-12-06T18:34:38.503Z)
Latitude
-0.00001°
Longitude
154.95289°
Altitude
558.818 km
Speed
7.584 km/s
True Right ascension
09h 57m 38s
True Declination
0° 00' 00"
Sunlit
Object was in daylight at epoch
Visualization orbit readout
Latitude
Unknown
Longitude
Unknown
Altitude
Unknown
Speed
Unknown
Apparent Right ascension
Unknown
Apparent Declination
Unknown
Sunlit
N/A
Visualization observer readout
Local Sidereal Time
04:17:52
Azimuth
Unknown
Elevation
Unknown
Doppler factor
Unknown
Orbital elements
Apogee altitude
561.973 km
Perigee altitude
560.064 km
Semi-major axis
6,939.156 km
Eccentricity
0.00014
Inclination
43.0023°
RAAN
149.4103°
Arg. of periapsis
273.418°
True anomaly
86.66623°
Mean anomaly
86.6505°
Eccentric anomaly
86.65836°
Mean motion
3.75477 °/min
Orbital period
95.88 mins
BSTAR
-0.000005302
Loading maneuver chart data...
Computing Atmospheric mass density...
Loading historical data...
Loading historical data...
Loading historical data...
Loading historical data...
Loading historical data...
Loading historical data...
Loading historical data...

Documentation

Showing up to 5 results
|